Flag for Colombia Weather past 2 weeks in Manizales, Colombia

Now
64 °F

Passing clouds.


Feels Like: 64 °F
Forecast: 56 / 74 °F
Wind: 6 mph from East

Location: Pereira / Matecana

Current Time: Jan 29, 2015 at 8:08:59 AM

Latest Report: Jan 29, 2015 at 7:00 AM


Visibility: N/A

Pressure: 30.00 "Hg

Humidity: 88%

Dew point: 61 °F

Location of ManizalesLocation

Historic Weather in Manizales — Graph

°F

Manizales temperature yesterday

Maximum temperature yesterday: 82 °F (at 1:00 PM)
Minimum temperature yesterday: 63 °F (at 6:00 AM)
Average temperature yesterday: 73 °F

Past Weeks' High & Low Weather Summary

 TemperatureHumidityPressure
High84 °F (Jan 16, 2:00 PM)100% (Jan 19, 5:00 AM)30.17 "Hg (Jan 19, 5:00 AM)
Low50 °F (Jan 21, 8:00 AM)51% (Jan 16, 2:00 PM)29.88 "Hg (Jan 28, 4:00 PM)
Average71 °F78%30.04 "Hg
* Reported Jan 14 7:00 AM — Jan 29 7:00 AM, Manizales, Weather by CustomWeather, © 2014

Note: Actual official high and low records may vary slightly from our data, if they occured in-between our weather recording intervals... More about our weather records

Advertising

Manizales weather history for previous 24 hours

 ConditionsComfort  
Time TempWeatherWind HumidityBarometerVisibility
7:00 AM
Jan 29
64 °FPassing clouds.6 mph88%30.00 "HgN/A
6:00 AM64 °FPassing clouds.7 mph88%29.97 "HgN/A
5:00 AM64 °FPassing clouds.3 mph83%30.00 "HgN/A
12:00 AM68 °FPassing clouds.6 mph83%29.97 "HgN/A
10:00 PM
Jan 28
70 °FPassing clouds.7 mph83%29.98 "HgN/A
9:00 PM72 °FPassing clouds.6 mph78%29.97 "HgN/A
8:00 PM73 °FPassing clouds.5 mph74%29.94 "HgN/A
7:00 PM75 °FPassing clouds.3 mph69%29.92 "HgN/A
6:00 PM81 °FScattered clouds.3 mph54%29.90 "HgN/A
5:00 PM82 °FScattered clouds.5 mph51%29.89 "HgN/A
4:00 PM82 °FScattered clouds.5 mph51%29.88 "HgN/A
3:00 PM81 °FScattered clouds.6 mph54%29.91 "HgN/A
1:00 PM82 °FPassing clouds.7 mph51%29.97 "HgN/A
12:00 PM77 °FPassing clouds.2 mph65%30.01 "HgN/A
11:00 AM77 °FPassing clouds.2 mph65%30.04 "HgN/A
10:00 AM73 °FPassing clouds.2 mph69%30.06 "HgN/A
9:00 AM70 °FPassing clouds.5 mph83%30.06 "HgN/A
8:00 AM64 °FScattered clouds.7 mph83%30.05 "HgN/A
Weather by CustomWeather, © 2014

See weather overviewHow to use our weather pages